Miscellaneous Local Product
Issued by NWS North Platte, NE

Home | Current Version | Previous Version | Text Only | Print | Product List | Glossary On
Versions: 1 2 3 4 5 6 7 8 9 10 11 12 13 14 15 16 17 18 19 20 21 22 23 24 25 26 27 28 29 30 31 32 33 34 35 36 37 38 39 40 41 42 43 44 45 46 47 48 49 50
650
AXUS43 KLBF 031110
MISLBF


WESTERN AND NORTH CENTRAL NEBRASKA HOURLY WEATHER ROUNDUP
NATIONAL WEATHER SERVICE NORTH PLATTE NE
600 AM CDT TUE MAY 03 2016

NOTE: "FAIR" INDICATES FEW OR NO CLOUDS BELOW 12,000 FEET WITH NO
SIGNIFICANT WEATHER AND/OR OBSTRUCTIONS TO VISIBILITY.

NOTE: STATIONS NOT REPORTING VARIABLES SUCH AS SKY/WEATHER OR
PRESSURE ARE PROVIDED BY RAWS AND APRS NETWORKS AND ARE NOT UNDER
NATIONAL WEATHER SERVICE QUALITY CONTROL.

...OBSERVATIONS IN AND NEAR THE EASTERN PANHANDLE OF NEBRASKA...

CITY           SKY/WX    TMP DP  RH WIND       PRES   REMARKS
PINE RIDGE     MOCLDY    28  27  96 CALM      30.08S
CHADRON        CLEAR     35  33  92 SW9       30.09R WCI  28
ALLIANCE       CLEAR     33  32  96 NW8       30.08R WCI  26
SIDNEY         CLEAR     37  33  85 NW12      30.09R WCI  29
CRESCENT LAKE    N/A     36  36 100 N5          N/A  WCI  32
BIG SPRINGS      N/A     38  36  94 CALM        N/A
$$

...OBSERVATIONS IN NORTHERN NEBRASKA AND FAR SOUTHERN SOUTH DAKOTA...

CITY           SKY/WX    TMP DP  RH WIND       PRES   REMARKS
WINNER         FAIR      40  36  86 SW3       30.05S
VALENTINE      CLEAR     34  32  92 W6        30.06S WCI  29
THEDFORD       CLEAR     38  37  98 W3        30.07S
AINSWORTH      CLEAR     34  34  99 CALM      30.06S
O`NEILL        CLEAR     43  40  90 CALM      30.05S
ORD            CLEAR     35  34  96 SW3       30.03F
BROKEN BOW     CLEAR     38  37  97 N3        30.04S
VALENTINE NWR    N/A     37  37  99 CALM        N/A
BUTTE            N/A     40  38  94 S3          N/A
HALSEY           N/A     39  39 100 CALM        N/A
CHAMBERS         N/A     39  36  89 CALM        N/A
EWING            N/A     41  39  92 CALM        N/A
$$

...OBSERVATIONS IN SOUTHWEST NEBRASKA AND FAR NORTHEAST COLORADO...

CITY           SKY/WX    TMP DP  RH WIND       PRES   REMARKS
HOLYOKE        FAIR      37  36  93 NW7       30.07S WCI  32
IMPERIAL       MOCLDY    43  41  93 NW5       30.06R
OGALLALA       CLEAR     38  37  92 CALM      30.07R
NORTH PLATTE   MOCLDY    38  37  97 N8        30.06R FOG     WCI  32
MCCOOK         CLEAR     39  38  96 W6        30.03F WCI  35
LEXINGTON      CLEAR     40  38  93 N3        30.04S
PAXTON           N/A     44  42  91 NW3         N/A
STAPLETON        N/A     38  37  97 CALM        N/A
GOTHENBURG       N/A     43  39  85 CALM        N/A
CALLAWAY         N/A     39  37  94 CALM        N/A
$$

...OBSERVATIONS IN CENTRAL LINCOLN COUNTY AREA...

CITY           SKY/WX    TMP DP  RH WIND       PRES   REMARKS
N.P. AIRPORT   MOCLDY    38  37  97 N8        30.06R FOG     WCI  32
N.P. DOWNTOWN    N/A     40  39  96 CALM        N/A
N.P. HILLCREST   N/A     41  40  97 NE12        N/A
$$

...SOME OBSERVATIONS FROM AROUND THE REGION...

CITY           SKY/WX    TMP DP  RH WIND       PRES   REMARKS
DENVER         PTCLDY    44  26  49 NW12      30.17R
LARAMIE        CLOUDY    26  24  92 S7        30.23S WCI  18
CHEYENNE       CLEAR     41  28  60 NW13G21   30.16S
SCOTTSBLUFF    CLEAR     37  33  85 W7        30.11R WCI  32
RAPID CITY     CLEAR     41  33  73 NW10      30.07S
BISMARCK       CLOUDY    42  40  92 W3        30.00S
PIERRE         CLOUDY    38  37  97 W6        30.02F WCI  33
SIOUX FALLS    PTCLDY    35  33  92 CALM      30.02S
OMAHA          PTCLDY    44  41  89 SE5       30.04F
GRAND ISLAND   CLEAR     40  36  86 CALM      30.05S
KANSAS CITY    PTCLDY    44  42  93 W6        30.06S
WICHITA        PTCLDY    42  39  89 SE5       30.06S
OKLAHOMA CITY  PTCLDY    41  39  93 CALM      30.09R
DALLAS         CLEAR     50  44  80 NW6       30.08R
AMARILLO       CLEAR     39  34  82 SW9       30.09F WCI  33
DODGE CITY     PTCLDY    45  35  68 SW9       30.05S
HAYS           CLOUDY    43  34  70 W9        30.04S
GOODLAND       MOCLDY    40  36  86 NW5       30.04S
$$




USA.gov is the U.S. government's official web portal to all federal, state and local government web resources and services.